TimeEDT,TemperatureF,Dew PointF,Humidity,Sea Level PressureIn,VisibilityMPH,Wind Direction,Wind SpeedMPH,Gust SpeedMPH,PrecipitationIn,Events,Conditions,WindDirDegrees,DateUTC
12:17 AM,71.6,69.8,94,29.88,3.0,Calm,Calm,-,N/A,,Overcast,0,2012-09-05 04:17:00
12:53 AM,69.1,69.1,100,29.86,1.2,Calm,Calm,-,N/A,,Mostly Cloudy,0,2012-09-05 04:53:00
12:59 AM,69.8,69.8,100,29.88,2.5,Calm,Calm,-,N/A,,Mostly Cloudy,0,2012-09-05 04:59:00
1:02 AM,69.8,68.0,94,29.88,2.5,Calm,Calm,-,N/A,,Mostly Cloudy,0,2012-09-05 05:02:00
1:06 AM,69.8,68.0,94,29.88,1.0,Calm,Calm,-,N/A,,Mostly Cloudy,0,2012-09-05 05:06:00
1:20 AM,69.8,69.8,100,29.88,2.0,Calm,Calm,-,N/A,,Mostly Cloudy,0,2012-09-05 05:20:00
1:29 AM,71.6,69.8,94,29.88,4.0,Calm,Calm,-,N/A,,Overcast,0,2012-09-05 05:29:00
1:53 AM,71.1,70.0,96,29.86,4.0,NW,3.5,-,N/A,,Overcast,310,2012-09-05 05:53:00
2:06 AM,71.6,69.8,94,29.88,4.0,Calm,Calm,-,N/A,,Overcast,0,2012-09-05 06:06:00
2:21 AM,71.6,69.8,94,29.88,3.0,NW,3.5,-,N/A,,Overcast,320,2012-09-05 06:21:00
2:53 AM,72.0,70.0,93,29.85,3.0,Calm,Calm,-,N/A,,Overcast,0,2012-09-05 06:53:00
3:53 AM,71.1,69.1,93,29.87,5.0,NNW,5.8,-,N/A,,Overcast,330,2012-09-05 07:53:00
4:53 AM,70.0,68.0,93,29.88,7.0,NW,3.5,-,N/A,,Overcast,320,2012-09-05 08:53:00
5:03 AM,69.8,66.2,88,29.89,9.0,North,5.8,-,N/A,,Overcast,350,2012-09-05 09:03:00
5:53 AM,69.1,66.0,90,29.89,10.0,Calm,Calm,-,N/A,,Overcast,0,2012-09-05 09:53:00
6:53 AM,69.1,64.9,87,29.91,10.0,North,3.5,-,N/A,,Overcast,350,2012-09-05 10:53:00
7:53 AM,69.1,64.9,87,29.91,10.0,North,3.5,-,N/A,,Overcast,350,2012-09-05 11:53:00
8:53 AM,70.0,64.0,81,29.91,10.0,Calm,Calm,-,N/A,,Overcast,0,2012-09-05 12:53:00
9:53 AM,71.1,64.0,78,29.91,10.0,Calm,Calm,-,N/A,,Mostly Cloudy,0,2012-09-05 13:53:00
10:07 AM,71.6,64.4,78,29.93,10.0,Calm,Calm,-,N/A,,Partly Cloudy,0,2012-09-05 14:07:00
10:49 AM,73.4,64.4,73,29.94,10.0,Calm,Calm,-,N/A,,Mostly Cloudy,0,2012-09-05 14:49:00
10:53 AM,73.0,64.9,76,29.92,10.0,SSE,3.5,-,N/A,,Mostly Cloudy,160,2012-09-05 14:53:00
11:27 AM,75.2,66.2,73,29.93,10.0,Calm,Calm,-,N/A,,Scattered Clouds,0,2012-09-05 15:27:00
11:53 AM,75.0,64.9,71,29.91,10.0,SSW,3.5,-,N/A,,Clear,200,2012-09-05 15:53:00
12:15 PM,78.8,64.4,61,29.92,10.0,Variable,4.6,-,N/A,,Mostly Cloudy,0,2012-09-05 16:15:00
12:49 PM,78.8,66.2,65,29.90,10.0,Calm,Calm,-,N/A,,Scattered Clouds,0,2012-09-05 16:49:00
12:53 PM,78.1,64.9,64,29.89,10.0,Calm,Calm,-,N/A,,Scattered Clouds,0,2012-09-05 16:53:00
1:53 PM,80.1,64.9,60,29.88,10.0,Calm,Calm,-,N/A,,Clear,0,2012-09-05 17:53:00
2:53 PM,82.0,64.9,56,29.86,10.0,South,5.8,-,N/A,,Clear,170,2012-09-05 18:53:00
3:53 PM,84.0,66.0,55,29.84,10.0,West,4.6,-,N/A,,Clear,260,2012-09-05 19:53:00
4:53 PM,84.9,64.0,49,29.83,10.0,Calm,Calm,-,N/A,,Clear,0,2012-09-05 20:53:00
5:53 PM,82.0,66.0,58,29.84,10.0,West,5.8,-,N/A,,Clear,270,2012-09-05 21:53:00
6:53 PM,79.0,66.0,64,29.84,10.0,WNW,3.5,-,N/A,,Clear,290,2012-09-05 22:53:00
7:53 PM,75.0,69.1,82,29.84,10.0,Calm,Calm,-,N/A,,Clear,0,2012-09-05 23:53:00
8:53 PM,72.0,68.0,87,29.84,10.0,Calm,Calm,-,N/A,,Clear,0,2012-09-06 00:53:00
9:53 PM,72.0,69.1,91,29.85,10.0,Calm,Calm,-,N/A,,Clear,0,2012-09-06 01:53:00
10:53 PM,70.0,68.0,93,29.85,10.0,Calm,Calm,-,N/A,,Clear,0,2012-09-06 02:53:00
11:53 PM,71.1,68.0,90,29.86,10.0,Calm,Calm,-,N/A,,Clear,0,2012-09-06 03:53:00